Location: McFarlands Corners
(41.4117°N, 81.3382°W)
Time: 13:01:13
(UTC+00:00)

Explorer 7 - Pass Details

Date: 17 February 2026
Orbit: 430 x 541 km, 50.2° (Epoch: 12 March)

Event Time Altitude Azimuth Distance (km) Brightness Sun altitude
Rises 23:13:07 0° 291° (WNW) 2,483 11.2 -2.9°
Reaches altitude 10° 23:15:38 10° 308° (NW) 1,631 9.8 -3.4°
Maximum altitude 23:18:29 21° 359° (N) 1,141 8.4 -3.9°
Drops below altitude 10° 23:21:25 10° 49° (NE) 1,686 8.8 -4.4°
Enters shadow 23:22:48 - 60° (ENE) 2,143 9.2 -4.7°
Sets 23:24:03 0° 66° (ENE) 2,595 - -4.9°
